Weather History for KLVK - June, 2012

Change the Weather History Date:

Sunday, June 24, 2012

  Actual Average Record
Temperature  
Mean Temperature 61 °F 70 °F  
Max Temperature 72 °F 84 °F 105 °F (1964)
Min Temperature 50 °F 56 °F 44 °F (1946)
Degree Days  
Heating Degree Days 4 1  
Month to date heating degree days 35 31  
Since 1 June heating degree days 35 31  
Since 1 July heating degree days 2597 2779  
Cooling Degree Days 0 5  
Month to date cooling degree days 120 76  
Year to date cooling degree days 194 129  
Since 1 June cooling degree days 120 76  
Growing Degree Days 12 (Base 50)    
Moisture  
Dew Point 43 °F    
Average Humidity 56    
Maximum Humidity 83    
Minimum Humidity 28    
Precipitation  
Precipitation 0.00 in 0.00 in 0.06 in (1975)
Month to date precipitation 0.07 0.04  
Year to date precipitation 7.06 9.90  
Since 1 July precipitation 8.97 15.71  
Sea Level Pressure  
Sea Level Pressure 29.99 in    
Wind  
Wind Speed 7 mph (West)    
Max Wind Speed 16 mph    
Max Gust Speed 22 mph    
Visibility 10 miles    
Events      
T = Trace of Precipitation, MM = Missing Value Source: NWS Daily Summary

Daily Weather History Graph

Daily Weather History Graph

Search for Another Location

Airport or City:

Trip Planner

Search our weather history database for the weather conditions in past years. The results will help you decide how hot, cold, wet, or windy it might be!

Date:

Astronomy

Jun. 24, 2012 Rise Set
Actual Time 5:46 AM PDT 8:32 PM PDT
Civil Twilight 5:15 AM PDT 9:04 PM PDT
Nautical Twilight 4:36 AM PDT 9:43 PM PDT
Astronomical Twilight 3:51 AM PDT 10:27 PM PDT
Moon 10:52 AM PDT (6/24) 11:40 PM PDT (6/24)
Length of Visible Light 15h 48m
Length of Day
14h 46m
Waxing Crescent, 25% of the Moon is Illuminated
Jun 24
Waxing Crescent
Jun 26
First Quarter
Jul 3
Full
Jul 10
Last Quarter
Jul 18
New

Hourly Weather History & Observations

Time (PDT) Temp. Dew Point Humidity Pressure Visibility Wind Dir Wind Speed Gust Speed Precip Events Conditions
12:53 AM 55.0 °F 46.9 °F 74% 29.95 in 10.0 mi WSW 9.2 mph - N/A   Partly Cloudy
1:53 AM 54.0 °F 46.0 °F 75% 29.95 in 10.0 mi SW 4.6 mph - N/A   Clear
2:53 AM 53.1 °F 46.0 °F 77% 29.95 in 10.0 mi Calm Calm - N/A   Clear
3:53 AM 53.1 °F 46.0 °F 77% 29.96 in 10.0 mi WNW 3.5 mph - N/A   Clear
4:53 AM 51.1 °F 46.0 °F 83% 29.97 in 10.0 mi WNW 4.6 mph - N/A   Clear
5:53 AM 51.1 °F 46.0 °F 83% 29.99 in 10.0 mi Calm Calm - N/A   Clear
6:53 AM 53.1 °F 46.9 °F 80% 30.00 in 10.0 mi West 3.5 mph - N/A   Clear
7:53 AM 55.9 °F 46.9 °F 72% 30.01 in 10.0 mi WSW 4.6 mph - N/A   Clear
8:53 AM 57.9 °F 46.0 °F 65% 30.01 in 10.0 mi Variable 4.6 mph - N/A   Clear
9:53 AM 63.0 °F 39.9 °F 43% 30.01 in 10.0 mi West 8.1 mph - N/A   Clear
10:53 AM 66.0 °F 39.9 °F 38% 30.01 in 10.0 mi WNW 10.4 mph - N/A   Clear
11:53 AM 68.0 °F 39.0 °F 35% 30.01 in 10.0 mi WSW 11.5 mph 16.1 mph N/A   Clear
12:53 PM 69.1 °F 37.9 °F 32% 30.01 in 10.0 mi West 13.8 mph 19.6 mph N/A   Clear
1:53 PM 70.0 °F 37.9 °F 31% 30.01 in 10.0 mi WSW 9.2 mph - N/A   Clear
2:53 PM 70.0 °F 36.0 °F 29% 30.00 in 10.0 mi WNW 9.2 mph 21.9 mph N/A   Clear
3:53 PM 72.0 °F 37.9 °F 29% 29.99 in 10.0 mi West 13.8 mph 19.6 mph N/A   Clear
4:53 PM 71.1 °F 39.9 °F 32% 29.98 in 10.0 mi West 15.0 mph - N/A   Clear
5:53 PM 68.0 °F 41.0 °F 37% 29.97 in 10.0 mi West 16.1 mph - N/A   Clear
6:53 PM 64.9 °F 42.1 °F 43% 29.97 in 10.0 mi WSW 15.0 mph - N/A   Clear
7:53 PM 62.1 °F 43.0 °F 50% 29.98 in 10.0 mi West 15.0 mph - N/A   Clear
8:53 PM 59.0 °F 44.1 °F 58% 29.99 in 10.0 mi West 12.7 mph - N/A   Clear
9:53 PM 57.0 °F 45.0 °F 64% 30.01 in 10.0 mi WSW 12.7 mph - N/A   Clear
10:53 PM 55.9 °F 46.0 °F 69% 30.02 in 10.0 mi SW 8.1 mph - N/A   Clear
11:53 PM 55.0 °F 46.0 °F 72% 30.04 in 10.0 mi SW 4.6 mph - N/A   Scattered Clouds